FW3806 Weather Reports


time (UTC)temp
C
wind
direction
speed
KPH
gust
KPH
rain 1hr
cm
rain 24hr
cm
rain mn
cm
humidity
%
barometer
mb
20260506201533 26 64 4.8 16.1 0.00 0.00 0.00 21 1013.3
20260506200043 26 73 0.0 11.3 0.00 0.00 0.00 21 1013.5
20260506194529 25 23 3.2 16.1 0.00 0.00 0.00 23 1013.6
20260506193028 25 110 6.4 16.1 0.00 0.00 0.00 22 1013.8
20260506191528 25 120 0.0 11.3 0.00 0.00 0.00 22 1014.0
20260506190034 25 113 4.8 12.9 0.00 0.00 0.00 22 1014.1
20260506184523 24 103 6.4 19.3 0.00 0.00 0.00 24 1014.2
20260506183023 25 207 4.8 22.5 0.00 0.00 0.00 23 1014.3
20260506181523 25 168 8.0 16.1 0.00 0.00 0.00 23 1014.3
20260506180021 24 104 6.4 12.9 0.00 0.00 0.00 24 1014.4
20260506174519 24 105 1.6 8.0 0.00 0.00 0.00 23 1014.4
20260506173017 23 248 0.0 9.7 0.00 0.00 0.00 25 1014.4
20260506171517 23 24 3.2 22.5 0.00 0.00 0.00 25 1014.5
20260506170013 23 328 4.8 22.5 0.00 0.00 0.00 26 1014.3
20260506164513 22 333 12.9 22.5 0.00 0.00 0.00 26 1014.2
20260506163007 22 311 9.7 22.5 0.00 0.00 0.00 26 1014.2
20260506161507 21 313 9.7 25.7 0.00 0.00 0.00 26 1014.2
20260506160002 21 294 12.9 25.7 0.00 0.00 0.00 26 1014.2
20260506154559 20 330 12.9 27.4 0.00 0.00 0.00 27 1014.3
20260506153109 19 12 4.8 11.3 0.00 0.00 0.00 32 1014.2
20260506151551 19 70 1.6 12.9 0.00 0.00 0.00 32 1014.1
20260506150047 18 6 0.0 11.3 0.00 0.00 0.00 33 1014.1
20260506144545 18 74 0.0 16.1 0.00 0.00 0.00 35 1014.0
20260506143042 17 15 0.0 6.4 0.00 0.00 0.00 35 1014.0
20260506141540 17 39 1.6 14.5 0.00 0.00 0.00 34 1013.7
20260506140039 16 349 3.2 12.9 0.00 0.00 0.00 34 1013.7
20260506134538 15 21 1.6 12.9 0.00 0.00 0.00 34 1013.6
20260506133036 15 327 0.0 8.0 0.00 0.00 0.00 35 1013.3
20260506131537 15 340 1.6 8.0 0.00 0.00 0.00 35 1013.2
20260506130033 14 290 1.6 9.7 0.00 0.00 0.00 35 1012.8
20260506124531 15 335 1.6 8.0 0.00 0.00 0.00 34 1012.6
20260506123029 15 332 4.8 12.9 0.00 0.00 0.00 34 1012.5
20260506121528 15 300 4.8 14.5 0.00 0.00 0.00 33 1012.4
20260506120027 16 340 6.4 16.1 0.00 0.00 0.00 32 1012.4
20260506114526 15 330 8.0 16.1 0.00 0.00 0.00 34 1012.3
20260506113024 14 31 0.0 11.3 0.00 0.00 0.00 34 1012.2
20260506111528 13 323 3.2 9.7 0.00 0.00 0.00 37 1012.1
20260506110021 13 287 0.0 0.0 0.00 0.00 0.00 38 1012.0
20260506104520 13 311 0.0 0.0 0.00 0.00 0.00 38 1011.9
20260506103017 13 311 0.0 0.0 0.00 0.00 0.00 38 1011.7
20260506101514 13 93 0.0 4.8 0.00 0.00 0.00 37 1011.5
20260506100011 13 120 0.0 0.0 0.00 0.00 0.00 37 1011.1
20260506094508 13 283 0.0 0.0 0.00 0.00 0.00 37 1010.9
20260506093006 13 283 0.0 1.6 0.00 0.00 0.00 37 1010.6
20260506091505 14 283 0.0 0.0 0.00 0.00 0.00 36 1010.5
20260506090111 15 283 0.0 0.0 0.00 0.00 0.00 35 1010.6
20260506084633 15 283 0.0 0.0 0.00 0.00 0.00 35 1010.5
20260506083058 15 283 0.0 0.0 0.00 0.00 0.00 33 1010.7
20260506081600 17 281 0.0 0.0 0.00 0.00 0.00 30 1010.7
20260506073049 18 271 0.0 6.4 0.00 0.00 0.00 29 1010.5
20260506071548 18 294 0.0 6.4 0.00 0.00 0.00 29 1010.5
20260506061543 18 292 0.0 0.0 0.00 0.00 0.00 29 1010.2
20260506044532 18 335 0.0 0.0 0.00 0.00 0.00 31 1009.3
20260506043031 18 335 0.0 3.2 0.00 0.00 0.00 30 1009.2
20260506041546 19 139 0.0 0.0 0.00 0.00 0.00 30 1009.1
20260506040032 20 139 0.0 0.0 0.00 0.00 0.00 29 1008.9
20260506034543 20 139 0.0 0.0 0.00 0.00 0.00 28 1008.5
20260506033028 20 127 0.0 0.0 0.00 0.00 0.00 27 1008.2
20260506031528 21 167 0.0 4.8 0.00 0.00 0.00 27 1007.9
20260506030027 21 154 3.2 11.3 0.00 0.00 0.00 25 1007.6
20260506024529 21 128 3.2 8.0 0.00 0.00 0.00 23 1007.4
20260506023026 21 146 4.8 12.9 0.00 0.00 0.00 23 1007.2
20260506021525 22 199 1.6 8.0 0.00 0.00 0.00 21 1007.0
20260506020025 22 160 4.8 9.7 0.00 0.00 0.00 20 1006.9
20260506014524 22 100 0.0 8.0 0.00 0.00 0.00 19 1006.8
20260506013036 22 117 0.0 8.0 0.00 0.00 0.00 19 1006.7
20260506011526 22 97 0.0 8.0 0.00 0.00 0.00 19 1006.7
20260506010025 23 146 0.0 11.3 0.00 0.00 0.00 20 1006.7
20260506004522 22 99 3.2 9.7 0.00 0.00 0.00 20 1006.6
20260506003021 23 134 6.4 12.9 0.00 0.00 0.00 20 1006.6
20260506001520 23 124 4.8 9.7 0.00 0.00 0.00 19 1006.6
20260506000019 22 99 0.0 19.3 0.00 0.00 0.00 20 1006.5
20260505234518 23 122 0.0 4.8 0.00 0.00 0.00 20 1006.5
20260505233025 22 105 0.0 1.6 0.00 0.00 0.00 21 1006.5
20260505231516 22 329 8.0 16.1 0.00 0.00 0.00 20 1006.5
20260505230123 22 143 1.6 16.1 0.00 0.00 0.00 20 1006.8
20260505224514 22 70 0.0 17.7 0.00 0.00 0.00 20 1007.1
20260505223013 22 58 6.4 22.5 0.00 0.00 0.00 20 1007.2
20260505221512 22 75 1.6 17.7 0.00 0.00 0.00 20 1007.3
20260505220028 22 101 11.3 19.3 0.00 0.00 0.00 20 1007.6
20260505214515 22 110 4.8 16.1 0.00 0.00 0.00 22 1007.7
20260505213010 22 22 0.0 19.3 0.00 0.00 0.00 21 1007.8
20260505211511 22 180 1.6 22.5 0.00 0.00 0.00 22 1008.0
20260505210007 22 241 0.0 12.9 0.00 0.00 0.00 22 1008.2
20260505204507 22 210 11.3 16.1 0.00 0.00 0.00 23 1008.3
20260505203002 21 77 11.3 22.5 0.00 0.00 0.00 24 1008.3